{"data":{"norad_id":57972,"epoch":"2026-05-24T17:40:33.127392Z","epoch_age_seconds":97714,"freshness":"FRESH","line1":"1 57972U 23151J   26144.73649453  .00023825  00000+0  87200-3 0  9999","line2":"2 57972  43.0024 266.7858 0001949 266.7215  93.3414 15.27598536147398","mean_motion":15.27598536,"eccentricity":0.0001949,"inclination_deg":43.0024,"raan_deg":266.7858,"arg_perigee_deg":266.7215,"mean_anomaly_deg":93.3414,"bstar":0.000872,"rev_number":14739,"period_min":94.265604873557,"perigee_km":481.65635879599,"apogee_km":484.3308275012,"semimajor_km":6861.1305931486,"source":"CELESTRAK","updated_at":"2026-05-25T13:38:18.485541Z"}}